| time (UTC) | temp F | wind direction | speed MPH | gust MPH | rain 1hr in | rain 24hr in | rain mn in | humidity % | barometer mb |
| 20260507101031 | 50 | 287 | 2.0 | 5.0 | 0.00 | 0.23 | 0.01 | 73 | 1012.0 |
| 20260507100530 | 50 | 327 | 2.0 | 5.0 | 0.00 | 0.23 | 0.01 | 76 | 1011.9 |
| 20260507100054 | 50 | 281 | 3.0 | 6.0 | 0.00 | 0.23 | 0.01 | 76 | 1011.9 |
| 20260507095532 | 50 | 313 | 3.0 | 6.0 | 0.00 | 0.23 | 0.01 | 77 | 1011.8 |
| 20260507095031 | 50 | 309 | 3.0 | 6.0 | 0.00 | 0.23 | 0.01 | 81 | 1011.8 |
| 20260507094543 | 50 | 19 | 2.0 | 5.0 | 0.00 | 0.23 | 0.01 | 82 | 1011.8 |
| 20260507094030 | 51 | 334 | 0.0 | 2.0 | 0.00 | 0.23 | 0.01 | 82 | 1011.9 |
| 20260507093530 | 51 | 0 | 0.0 | 4.0 | 0.00 | 0.23 | 0.01 | 84 | 1011.9 |
| 20260507093042 | 51 | 293 | 2.0 | 5.0 | 0.00 | 0.23 | 0.01 | 84 | 1011.9 |
| 20260507092533 | 51 | 352 | 2.0 | 8.0 | 0.00 | 0.23 | 0.01 | 86 | 1011.8 |
| 20260507092033 | 51 | 328 | 4.0 | 8.0 | 0.00 | 0.23 | 0.01 | 86 | 1012.0 |
| 20260507091539 | 51 | 317 | 3.0 | 6.0 | 0.00 | 0.23 | 0.01 | 87 | 1012.0 |
| 20260507091031 | 51 | 294 | 4.0 | 7.0 | 0.00 | 0.23 | 0.01 | 88 | 1012.0 |
| 20260507090530 | 51 | 315 | 4.0 | 7.0 | 0.00 | 0.23 | 0.01 | 89 | 1011.9 |
| 20260507090049 | 51 | 311 | 2.0 | 6.0 | 0.00 | 0.23 | 0.01 | 89 | 1011.7 |
| 20260507085532 | 51 | 325 | 2.0 | 4.0 | 0.00 | 0.23 | 0.01 | 89 | 1011.9 |
| 20260507085031 | 51 | 298 | 3.0 | 4.0 | 0.00 | 0.23 | 0.01 | 89 | 1011.7 |
| 20260507084549 | 51 | 308 | 3.0 | 4.0 | 0.00 | 0.23 | 0.01 | 89 | 1011.6 |
| 20260507084032 | 51 | 336 | 2.0 | 4.0 | 0.00 | 0.23 | 0.01 | 89 | 1011.5 |
| 20260507083531 | 51 | 313 | 2.0 | 5.0 | 0.00 | 0.23 | 0.01 | 89 | 1011.6 |
| 20260507083058 | 51 | 296 | 2.0 | 5.0 | 0.00 | 0.23 | 0.01 | 89 | 1011.6 |
| 20260507082531 | 51 | 306 | 3.0 | 5.0 | 0.00 | 0.23 | 0.01 | 89 | 1011.4 |
| 20260507082031 | 51 | 322 | 1.0 | 3.0 | 0.00 | 0.23 | 0.01 | 89 | 1011.2 |
| 20260507081547 | 51 | 302 | 2.0 | 4.0 | 0.00 | 0.23 | 0.01 | 88 | 1011.0 |
| 20260507081033 | 51 | 270 | 3.0 | 5.0 | 0.00 | 0.23 | 0.01 | 88 | 1011.0 |
| 20260507080532 | 51 | 305 | 3.0 | 5.0 | 0.00 | 0.23 | 0.01 | 88 | 1010.9 |
| 20260507080042 | 51 | 328 | 2.0 | 5.0 | 0.00 | 0.23 | 0.01 | 89 | 1011.0 |
| 20260507075531 | 51 | 312 | 3.0 | 7.0 | 0.00 | 0.23 | 0.01 | 88 | 1011.0 |
| 20260507075031 | 51 | 302 | 4.0 | 9.0 | 0.00 | 0.23 | 0.01 | 88 | 1011.1 |
| 20260507074540 | 51 | 333 | 4.0 | 9.0 | 0.00 | 0.23 | 0.01 | 88 | 1011.0 |
| 20260507074032 | 51 | 292 | 3.0 | 6.0 | 0.00 | 0.23 | 0.01 | 88 | 1011.0 |
| 20260507073532 | 51 | 307 | 2.0 | 5.0 | 0.01 | 0.23 | 0.01 | 88 | 1010.9 |
| 20260507073050 | 51 | 333 | 3.0 | 9.0 | 0.01 | 0.23 | 0.01 | 88 | 1011.0 |
| 20260507072533 | 51 | 344 | 4.0 | 9.0 | 0.01 | 0.23 | 0.01 | 88 | 1011.0 |
| 20260507072030 | 51 | 11 | 3.0 | 8.0 | 0.01 | 0.23 | 0.01 | 88 | 1011.1 |
| 20260507071538 | 51 | 325 | 3.0 | 10.0 | 0.01 | 0.23 | 0.01 | 89 | 1011.2 |
| 20260507071031 | 51 | 329 | 5.0 | 10.0 | 0.01 | 0.23 | 0.01 | 89 | 1011.3 |
| 20260507070531 | 51 | 312 | 3.0 | 6.0 | 0.01 | 0.23 | 0.01 | 90 | 1011.4 |
| 20260507070047 | 51 | 317 | 3.0 | 7.0 | 0.01 | 0.23 | 0.01 | 89 | 1011.5 |
| 20260507065530 | 51 | 331 | 4.0 | 10.0 | 0.01 | 0.23 | 0.01 | 88 | 1011.4 |
| 20260507065030 | 52 | 308 | 2.0 | 10.0 | 0.01 | 0.23 | 0.01 | 89 | 1011.3 |
| 20260507064545 | 52 | 348 | 5.0 | 10.0 | 0.01 | 0.23 | 0.01 | 87 | 1011.2 |
| 20260507064031 | 52 | 29 | 3.0 | 6.0 | 0.01 | 0.23 | 0.01 | 88 | 1011.2 |
| 20260507063532 | 52 | 335 | 2.0 | 6.0 | 0.00 | 0.22 | 0.00 | 88 | 1011.3 |
| 20260507063049 | 52 | 294 | 3.0 | 6.0 | 0.00 | 0.22 | 0.00 | 87 | 1011.4 |
| 20260507062530 | 53 | 352 | 2.0 | 6.0 | 0.00 | 0.22 | 0.00 | 87 | 1011.3 |
| 20260507062030 | 53 | 303 | 3.0 | 6.0 | 0.00 | 0.22 | 0.00 | 87 | 1011.5 |
| 20260507061544 | 53 | 352 | 2.0 | 9.0 | 0.00 | 0.22 | 0.00 | 87 | 1011.4 |
| 20260507061033 | 53 | 314 | 3.0 | 9.0 | 0.00 | 0.22 | 0.00 | 87 | 1011.4 |
| 20260507060530 | 53 | 336 | 2.0 | 7.0 | 0.00 | 0.22 | 0.00 | 86 | 1011.3 |
| 20260507060041 | 53 | 342 | 4.0 | 8.0 | 0.00 | 0.22 | 0.00 | 86 | 1011.3 |
| 20260507055531 | 54 | 323 | 3.0 | 8.0 | 0.00 | 0.22 | 0.00 | 87 | 1011.2 |
| 20260507055031 | 53 | 329 | 3.0 | 7.0 | 0.00 | 0.22 | 0.00 | 88 | 1011.3 |
| 20260507054543 | 53 | 325 | 2.0 | 5.0 | 0.00 | 0.22 | 0.00 | 88 | 1011.2 |
| 20260507054031 | 54 | 333 | 2.0 | 4.0 | 0.00 | 0.22 | 0.00 | 88 | 1011.2 |
| 20260507053530 | 54 | 324 | 2.0 | 4.0 | 0.00 | 0.22 | 0.00 | 88 | 1011.2 |
| 20260507053039 | 54 | 0 | 0.0 | 3.0 | 0.00 | 0.22 | 0.00 | 89 | 1011.3 |
| 20260507052531 | 54 | 13 | 1.0 | 4.0 | 0.00 | 0.22 | 0.00 | 89 | 1011.3 |
| 20260507052031 | 54 | 324 | 1.0 | 4.0 | 0.00 | 0.22 | 0.00 | 88 | 1011.1 |
| 20260507051539 | 54 | 343 | 1.0 | 5.0 | 0.00 | 0.22 | 0.00 | 88 | 1011.1 |
| 20260507051030 | 54 | 22 | 2.0 | 5.0 | 0.00 | 0.22 | 0.00 | 88 | 1011.3 |
| 20260507050530 | 54 | 338 | 2.0 | 5.0 | 0.00 | 0.22 | 0.00 | 88 | 1011.3 |
| 20260507050045 | 54 | 302 | 3.0 | 5.0 | 0.00 | 0.22 | 0.00 | 88 | 1011.6 |
| 20260507045531 | 54 | 335 | 0.0 | 4.0 | 0.00 | 0.22 | 0.00 | 86 | 1011.2 |
| 20260507045031 | 54 | 9 | 2.0 | 10.0 | 0.01 | 0.22 | 0.00 | 86 | 1011.4 |
| 20260507044546 | 54 | 341 | 4.0 | 10.0 | 0.01 | 0.22 | 0.00 | 87 | 1011.5 |
| 20260507044032 | 54 | 313 | 5.0 | 11.0 | 0.01 | 0.22 | 0.00 | 86 | 1011.6 |
| 20260507043532 | 54 | 288 | 6.0 | 11.0 | 0.01 | 0.22 | 0.00 | 87 | 1011.4 |
| 20260507043042 | 54 | 321 | 5.0 | 13.0 | 0.01 | 0.22 | 0.00 | 88 | 1011.2 |
| 20260507042533 | 55 | 333 | 7.0 | 13.0 | 0.01 | 0.22 | 0.00 | 87 | 1011.0 |
| 20260507042030 | 54 | 329 | 5.0 | 8.0 | 0.01 | 0.22 | 0.00 | 89 | 1010.9 |
| 20260507041548 | 55 | 293 | 4.0 | 9.0 | 0.01 | 0.22 | 0.00 | 88 | 1010.7 |
| 20260507041033 | 55 | 5 | 2.0 | 9.0 | 0.02 | 0.22 | 0.00 | 88 | 1010.8 |
| 20260507040532 | 55 | 315 | 4.0 | 7.0 | 0.04 | 0.22 | 0.00 | 88 | 1011.1 |
| 20260507040045 | 55 | 313 | 1.0 | 8.0 | 0.04 | 0.22 | 0.00 | 88 | 1011.0 |
| 20260507035531 | 55 | 350 | 3.0 | 8.0 | 0.04 | 0.22 | 0.22 | 88 | 1011.0 |
| 20260507035033 | 55 | 338 | 4.0 | 9.0 | 0.03 | 0.21 | 0.21 | 88 | 1011.0 |
| 20260507034545 | 55 | 273 | 2.0 | 9.0 | 0.03 | 0.21 | 0.21 | 90 | 1011.0 |
| 20260507034031 | 55 | 317 | 5.0 | 11.0 | 0.03 | 0.21 | 0.21 | 90 | 1010.8 |
| 20260507033532 | 56 | 307 | 5.0 | 12.0 | 0.03 | 0.21 | 0.21 | 90 | 1010.8 |
| 20260507033044 | 56 | 315 | 6.0 | 12.0 | 0.03 | 0.21 | 0.21 | 90 | 1010.7 |
| 20260507032533 | 56 | 292 | 5.0 | 10.0 | 0.03 | 0.21 | 0.21 | 89 | 1010.7 |
| 20260507032030 | 56 | 352 | 3.0 | 10.0 | 0.03 | 0.21 | 0.21 | 89 | 1010.6 |
| 20260507031541 | 57 | 338 | 5.0 | 11.0 | 0.03 | 0.21 | 0.21 | 88 | 1010.7 |
| 20260507031032 | 58 | 311 | 5.0 | 11.0 | 0.01 | 0.19 | 0.19 | 86 | 1011.1 |
| 20260507030530 | 58 | 345 | 6.0 | 10.0 | 0.00 | 0.18 | 0.18 | 85 | 1011.0 |
| 20260507030046 | 58 | 330 | 6.0 | 12.0 | 0.00 | 0.18 | 0.18 | 84 | 1010.8 |
| 20260507025530 | 58 | 289 | 5.0 | 12.0 | 0.00 | 0.18 | 0.18 | 84 | 1010.6 |
| 20260507025031 | 58 | 343 | 6.0 | 9.0 | 0.00 | 0.18 | 0.18 | 85 | 1010.2 |
| 20260507024554 | 59 | 300 | 4.0 | 9.0 | 0.00 | 0.18 | 0.18 | 85 | 1010.3 |
| 20260507024031 | 59 | 352 | 3.0 | 9.0 | 0.00 | 0.18 | 0.18 | 85 | 1010.4 |
| 20260507023541 | 59 | 331 | 5.0 | 9.0 | 0.00 | 0.18 | 0.18 | 85 | 1010.5 |
| 20260507023042 | 59 | 305 | 5.0 | 8.0 | 0.00 | 0.18 | 0.18 | 85 | 1010.6 |
| 20260507022531 | 59 | 294 | 3.0 | 8.0 | 0.00 | 0.18 | 0.18 | 85 | 1010.4 |
| 20260507022031 | 59 | 315 | 5.0 | 8.0 | 0.00 | 0.18 | 0.18 | 85 | 1010.4 |
| 20260507021545 | 59 | 298 | 4.0 | 8.0 | 0.00 | 0.18 | 0.18 | 85 | 1010.5 |
| 20260507021030 | 59 | 313 | 4.0 | 9.0 | 0.00 | 0.18 | 0.18 | 85 | 1010.4 |
| 20260507020530 | 59 | 294 | 4.0 | 9.0 | 0.00 | 0.18 | 0.18 | 85 | 1010.3 |
| 20260507020055 | 59 | 269 | 4.0 | 9.0 | 0.00 | 0.18 | 0.18 | 85 | 1010.5 |
| 20260507015531 | 59 | 262 | 5.0 | 9.0 | 0.00 | 0.18 | 0.18 | 85 | 1010.5 |
| 20260507015030 | 59 | 257 | 4.0 | 10.0 | 0.00 | 0.18 | 0.18 | 85 | 1010.1 |
| 20260507014554 | 59 | 255 | 6.0 | 10.0 | 0.00 | 0.18 | 0.18 | 85 | 1010.1 |
| 20260507014031 | 59 | 294 | 5.0 | 10.0 | 0.00 | 0.18 | 0.18 | 85 | 1010.1 |
| 20260507013529 | 60 | 308 | 4.0 | 10.0 | 0.00 | 0.18 | 0.18 | 85 | 1010.2 |
| 20260507013048 | 60 | 304 | 4.0 | 12.0 | 0.00 | 0.18 | 0.18 | 85 | 1010.2 |
| 20260507012533 | 60 | 275 | 5.0 | 12.0 | 0.00 | 0.18 | 0.18 | 85 | 1010.5 |
| 20260507012031 | 60 | 325 | 5.0 | 11.0 | 0.00 | 0.18 | 0.18 | 85 | 1010.6 |
| 20260507011544 | 60 | 300 | 7.0 | 12.0 | 0.01 | 0.18 | 0.18 | 85 | 1010.4 |
| 20260507011030 | 60 | 333 | 6.0 | 12.0 | 0.01 | 0.18 | 0.18 | 85 | 1010.5 |
| 20260507010530 | 61 | 298 | 7.0 | 12.0 | 0.01 | 0.18 | 0.18 | 85 | 1010.4 |
| 20260507010044 | 61 | 311 | 6.0 | 13.0 | 0.01 | 0.18 | 0.18 | 85 | 1010.4 |
| 20260507005532 | 61 | 301 | 8.0 | 14.0 | 0.01 | 0.18 | 0.18 | 85 | 1010.7 |
| 20260507005032 | 62 | 319 | 8.0 | 14.0 | 0.01 | 0.18 | 0.18 | 84 | 1010.5 |
| 20260507004544 | 62 | 284 | 7.0 | 13.0 | 0.01 | 0.18 | 0.18 | 86 | 1010.3 |
| 20260507004030 | 62 | 308 | 7.0 | 13.0 | 0.01 | 0.18 | 0.18 | 87 | 1010.4 |
| 20260507003530 | 63 | 329 | 8.0 | 13.0 | 0.01 | 0.18 | 0.18 | 89 | 1010.3 |
| 20260507003038 | 63 | 269 | 3.0 | 8.0 | 0.01 | 0.18 | 0.18 | 92 | 1010.0 |
| 20260507002530 | 64 | 250 | 1.0 | 5.0 | 0.01 | 0.18 | 0.18 | 92 | 1009.7 |
| 20260507002030 | 64 | 288 | 1.0 | 4.0 | 0.01 | 0.18 | 0.18 | 92 | 1009.8 |
| 20260507001547 | 64 | 250 | 0.0 | 3.0 | 0.00 | 0.17 | 0.17 | 91 | 1010.0 |
| 20260507001030 | 64 | 276 | 0.0 | 4.0 | 0.00 | 0.17 | 0.17 | 90 | 1009.5 |
| 20260507000532 | 64 | 0 | 0.0 | 4.0 | 0.00 | 0.17 | 0.17 | 90 | 1009.5 |
| 20260507000045 | 64 | 248 | 2.0 | 4.0 | 0.00 | 0.17 | 0.17 | 90 | 1009.4 |
| 20260506235532 | 65 | 241 | 1.0 | 6.0 | 0.00 | 0.17 | 0.17 | 89 | 1009.4 |
| 20260506235030 | 65 | 237 | 1.0 | 6.0 | 0.00 | 0.17 | 0.17 | 88 | 1009.3 |
| 20260506234550 | 65 | 287 | 3.0 | 4.0 | 0.00 | 0.17 | 0.17 | 87 | 1009.0 |
| 20260506234031 | 66 | 257 | 0.0 | 5.0 | 0.00 | 0.17 | 0.17 | 86 | 1008.8 |
| 20260506233531 | 66 | 0 | 0.0 | 5.0 | 0.00 | 0.17 | 0.17 | 85 | 1008.8 |
| 20260506233043 | 66 | 184 | 2.0 | 4.0 | 0.00 | 0.17 | 0.17 | 84 | 1008.6 |
| 20260506232532 | 66 | 196 | 1.0 | 4.0 | 0.00 | 0.17 | 0.17 | 84 | 1008.7 |
| 20260506232031 | 66 | 174 | 1.0 | 4.0 | 0.00 | 0.17 | 0.17 | 83 | 1008.8 |
| 20260506231551 | 66 | 0 | 1.0 | 4.0 | 0.00 | 0.17 | 0.17 | 83 | 1008.8 |
| 20260506231031 | 67 | 207 | 1.0 | 6.0 | 0.00 | 0.17 | 0.17 | 83 | 1008.6 |
| 20260506230531 | 67 | 184 | 1.0 | 7.0 | 0.00 | 0.17 | 0.17 | 83 | 1008.7 |
| 20260506230056 | 67 | 184 | 2.0 | 9.0 | 0.00 | 0.17 | 0.17 | 82 | 1008.8 |
| 20260506225535 | 67 | 217 | 4.0 | 9.0 | 0.00 | 0.17 | 0.17 | 81 | 1009.0 |
| 20260506225031 | 67 | 227 | 3.0 | 7.0 | 0.00 | 0.17 | 0.17 | 81 | 1008.9 |
| 20260506224546 | 67 | 205 | 2.0 | 8.0 | 0.00 | 0.17 | 0.17 | 81 | 1008.9 |
| 20260506224030 | 67 | 227 | 4.0 | 8.0 | 0.00 | 0.17 | 0.17 | 80 | 1008.6 |
| 20260506223534 | 68 | 207 | 2.0 | 9.0 | 0.00 | 0.17 | 0.17 | 80 | 1008.6 |
| 20260506223051 | 68 | 219 | 3.0 | 9.0 | 0.00 | 0.17 | 0.17 | 80 | 1008.8 |
| 20260506222531 | 68 | 213 | 4.0 | 8.0 | 0.00 | 0.17 | 0.17 | 79 | 1008.8 |
| 20260506222031 | 68 | 167 | 4.0 | 8.0 | 0.00 | 0.17 | 0.17 | 80 | 1008.7 |
| 20260506221544 | 68 | 183 | 3.0 | 6.0 | 0.00 | 0.17 | 0.17 | 81 | 1008.8 |
| 20260506221033 | 67 | 205 | 2.0 | 5.0 | 0.00 | 0.17 | 0.17 | 82 | 1008.6 |
| 20260506220535 | 66 | 165 | 1.0 | 4.0 | 0.00 | 0.17 | 0.17 | 84 | 1008.7 |
| 20260506220041 | 66 | 208 | 1.0 | 5.0 | 0.00 | 0.17 | 0.17 | 84 | 1008.7 |
| 20260506215536 | 66 | 196 | 1.0 | 5.0 | 0.00 | 0.17 | 0.17 | 84 | 1008.6 |
| 20260506215031 | 66 | 201 | 1.0 | 5.0 | 0.00 | 0.17 | 0.17 | 84 | 1008.8 |
| 20260506214540 | 66 | 198 | 1.0 | 4.0 | 0.00 | 0.17 | 0.17 | 84 | 1008.6 |
| 20260506214030 | 66 | 217 | 1.0 | 6.0 | 0.00 | 0.17 | 0.17 | 85 | 1008.6 |
| 20260506213532 | 66 | 189 | 3.0 | 8.0 | 0.00 | 0.17 | 0.17 | 84 | 1008.5 |
| 20260506213102 | 66 | 187 | 3.0 | 8.0 | 0.00 | 0.17 | 0.17 | 84 | 1008.4 |
| 20260506212531 | 66 | 200 | 3.0 | 8.0 | 0.00 | 0.17 | 0.17 | 84 | 1008.3 |
| 20260506212033 | 66 | 204 | 2.0 | 6.0 | 0.00 | 0.17 | 0.17 | 83 | 1008.2 |
| 20260506211603 | 66 | 198 | 3.0 | 8.0 | 0.00 | 0.17 | 0.17 | 83 | 1008.2 |
| 20260506211031 | 66 | 217 | 3.0 | 8.0 | 0.00 | 0.17 | 0.17 | 83 | 1008.2 |
| 20260506210531 | 66 | 235 | 2.0 | 6.0 | 0.00 | 0.17 | 0.17 | 83 | 1008.1 |
| 20260506210045 | 66 | 173 | 3.0 | 6.0 | 0.00 | 0.17 | 0.17 | 82 | 1008.0 |
| 20260506205531 | 66 | 223 | 2.0 | 6.0 | 0.00 | 0.17 | 0.17 | 83 | 1008.1 |
| 20260506205031 | 66 | 233 | 2.0 | 5.0 | 0.00 | 0.17 | 0.17 | 82 | 1008.0 |
| 20260506204550 | 66 | 223 | 2.0 | 8.0 | 0.00 | 0.17 | 0.17 | 83 | 1008.0 |
| 20260506204031 | 66 | 227 | 3.0 | 8.0 | 0.00 | 0.17 | 0.17 | 82 | 1008.2 |
| 20260506203532 | 66 | 161 | 2.0 | 5.0 | 0.00 | 0.17 | 0.17 | 82 | 1008.0 |
| 20260506203047 | 66 | 211 | 2.0 | 7.0 | 0.00 | 0.17 | 0.17 | 82 | 1008.2 |
| 20260506202531 | 66 | 246 | 1.0 | 8.0 | 0.00 | 0.17 | 0.17 | 82 | 1008.3 |
| 20260506202033 | 66 | 184 | 4.0 | 8.0 | 0.00 | 0.17 | 0.17 | 81 | 1008.1 |
| 20260506201555 | 66 | 195 | 2.0 | 4.0 | 0.00 | 0.17 | 0.17 | 82 | 1008.3 |
| 20260506201031 | 66 | 244 | 2.0 | 9.0 | 0.00 | 0.17 | 0.17 | 82 | 1008.1 |
| 20260506200531 | 66 | 199 | 2.0 | 9.0 | 0.00 | 0.17 | 0.17 | 83 | 1008.3 |
| 20260506200052 | 66 | 221 | 3.0 | 9.0 | 0.00 | 0.17 | 0.17 | 82 | 1008.3 |
| 20260506195532 | 66 | 209 | 2.0 | 6.0 | 0.00 | 0.17 | 0.17 | 82 | 1008.3 |
| 20260506195031 | 66 | 203 | 3.0 | 10.0 | 0.00 | 0.17 | 0.17 | 82 | 1008.3 |
| 20260506194556 | 66 | 206 | 3.0 | 10.0 | 0.00 | 0.17 | 0.17 | 81 | 1008.3 |
| 20260506194032 | 66 | 140 | 6.0 | 9.0 | 0.00 | 0.17 | 0.17 | 81 | 1008.3 |
| 20260506193531 | 66 | 262 | 1.0 | 9.0 | 0.00 | 0.17 | 0.17 | 82 | 1008.5 |
| 20260506193044 | 66 | 142 | 1.0 | 9.0 | 0.00 | 0.17 | 0.17 | 82 | 1008.3 |
| 20260506192530 | 66 | 208 | 3.0 | 9.0 | 0.00 | 0.17 | 0.17 | 81 | 1008.3 |
| 20260506192032 | 66 | 237 | 3.0 | 10.0 | 0.00 | 0.17 | 0.17 | 81 | 1008.3 |
| 20260506191547 | 66 | 173 | 2.0 | 10.0 | 0.00 | 0.17 | 0.17 | 84 | 1008.4 |
| 20260506191034 | 66 | 205 | 5.0 | 10.0 | 0.00 | 0.17 | 0.17 | 82 | 1008.5 |
| 20260506190531 | 66 | 119 | 4.0 | 11.0 | 0.00 | 0.17 | 0.17 | 82 | 1008.4 |
| 20260506190044 | 65 | 193 | 4.0 | 13.0 | 0.00 | 0.17 | 0.17 | 83 | 1008.6 |
| 20260506185532 | 65 | 182 | 7.0 | 13.0 | 0.00 | 0.17 | 0.17 | 83 | 1008.6 |
| 20260506185033 | 65 | 185 | 7.0 | 12.0 | 0.00 | 0.17 | 0.17 | 83 | 1008.6 |
| 20260506184542 | 65 | 165 | 6.0 | 14.0 | 0.00 | 0.17 | 0.17 | 83 | 1008.7 |
| 20260506184032 | 65 | 227 | 9.0 | 14.0 | 0.00 | 0.17 | 0.17 | 84 | 1008.8 |
| 20260506183531 | 65 | 167 | 5.0 | 12.0 | 0.00 | 0.17 | 0.17 | 84 | 1008.7 |
| 20260506183058 | 65 | 252 | 7.0 | 14.0 | 0.00 | 0.17 | 0.17 | 83 | 1008.7 |
| 20260506182530 | 64 | 200 | 6.0 | 15.0 | 0.00 | 0.17 | 0.17 | 84 | 1008.7 |
| 20260506182030 | 64 | 205 | 8.0 | 17.0 | 0.00 | 0.17 | 0.17 | 85 | 1008.6 |
| 20260506181544 | 64 | 202 | 7.0 | 17.0 | 0.00 | 0.17 | 0.17 | 85 | 1008.6 |
| 20260506181032 | 63 | 202 | 6.0 | 13.0 | 0.00 | 0.17 | 0.17 | 86 | 1008.7 |
| 20260506180534 | 63 | 221 | 6.0 | 16.0 | 0.00 | 0.17 | 0.17 | 86 | 1008.7 |
| 20260506180049 | 63 | 253 | 9.0 | 16.0 | 0.00 | 0.17 | 0.17 | 85 | 1008.8 |
| 20260506175532 | 64 | 186 | 3.0 | 15.0 | 0.00 | 0.17 | 0.17 | 86 | 1008.8 |
| 20260506175030 | 63 | 159 | 7.0 | 16.0 | 0.00 | 0.17 | 0.17 | 86 | 1009.0 |
| 20260506174545 | 63 | 202 | 7.0 | 16.0 | 0.00 | 0.17 | 0.17 | 87 | 1009.1 |
| 20260506174030 | 63 | 217 | 6.0 | 16.0 | 0.00 | 0.17 | 0.17 | 88 | 1008.9 |
| 20260506173532 | 62 | 160 | 8.0 | 16.0 | 0.00 | 0.17 | 0.17 | 87 | 1008.7 |
| 20260506173050 | 62 | 218 | 7.0 | 18.0 | 0.00 | 0.17 | 0.17 | 88 | 1008.7 |
| 20260506172531 | 62 | 197 | 9.0 | 17.0 | 0.00 | 0.17 | 0.17 | 88 | 1008.7 |
| 20260506172031 | 62 | 205 | 6.0 | 14.0 | 0.00 | 0.17 | 0.17 | 88 | 1008.9 |
| 20260506171542 | 62 | 224 | 7.0 | 13.0 | 0.00 | 0.17 | 0.17 | 89 | 1009.0 |
| 20260506171033 | 61 | 200 | 7.0 | 13.0 | 0.00 | 0.17 | 0.17 | 89 | 1008.9 |
| 20260506170530 | 61 | 190 | 6.0 | 15.0 | 0.00 | 0.17 | 0.17 | 89 | 1008.9 |
| 20260506170108 | 61 | 207 | 6.0 | 15.0 | 0.00 | 0.17 | 0.17 | 89 | 1008.9 |
| 20260506165532 | 61 | 218 | 6.0 | 15.0 | 0.00 | 0.17 | 0.17 | 90 | 1008.8 |
| 20260506165031 | 61 | 175 | 7.0 | 14.0 | 0.00 | 0.17 | 0.17 | 90 | 1008.7 |
| 20260506164542 | 61 | 174 | 5.0 | 16.0 | 0.00 | 0.17 | 0.17 | 91 | 1008.8 |
| 20260506164034 | 61 | 202 | 7.0 | 18.0 | 0.00 | 0.17 | 0.17 | 90 | 1008.8 |
| 20260506163530 | 60 | 163 | 8.0 | 18.0 | 0.00 | 0.17 | 0.17 | 90 | 1008.9 |
| 20260506163054 | 60 | 188 | 6.0 | 15.0 | 0.00 | 0.17 | 0.17 | 91 | 1008.9 |
| 20260506162531 | 60 | 180 | 6.0 | 15.0 | 0.00 | 0.17 | 0.17 | 91 | 1008.8 |
| 20260506162033 | 60 | 196 | 8.0 | 17.0 | 0.00 | 0.17 | 0.17 | 91 | 1008.9 |
| 20260506161544 | 60 | 210 | 7.0 | 17.0 | 0.00 | 0.17 | 0.17 | 91 | 1008.9 |
| 20260506161031 | 60 | 180 | 7.0 | 17.0 | 0.00 | 0.17 | 0.17 | 91 | 1009.0 |
| 20260506160531 | 60 | 150 | 6.0 | 15.0 | 0.00 | 0.17 | 0.17 | 91 | 1008.9 |
| 20260506160043 | 60 | 208 | 7.0 | 17.0 | 0.00 | 0.17 | 0.17 | 91 | 1009.0 |
| 20260506155531 | 60 | 126 | 9.0 | 17.0 | 0.01 | 0.17 | 0.17 | 92 | 1009.0 |
| 20260506155031 | 60 | 171 | 8.0 | 15.0 | 0.01 | 0.17 | 0.17 | 92 | 1009.2 |
| 20260506154544 | 60 | 157 | 7.0 | 17.0 | 0.02 | 0.17 | 0.17 | 92 | 1009.0 |
| 20260506154031 | 59 | 207 | 7.0 | 22.0 | 0.04 | 0.17 | 0.17 | 93 | 1009.0 |
| 20260506153530 | 59 | 175 | 7.0 | 22.0 | 0.04 | 0.17 | 0.17 | 93 | 1008.8 |
| 20260506153037 | 59 | 170 | 10.0 | 22.0 | 0.04 | 0.17 | 0.17 | 93 | 1008.8 |
| 20260506152531 | 59 | 162 | 8.0 | 17.0 | 0.05 | 0.17 | 0.17 | 93 | 1008.9 |
| 20260506152033 | 59 | 207 | 9.0 | 15.0 | 0.05 | 0.17 | 0.17 | 94 | 1009.2 |
| 20260506151546 | 59 | 190 | 9.0 | 17.0 | 0.05 | 0.17 | 0.17 | 93 | 1009.3 |
| 20260506151030 | 59 | 144 | 6.0 | 21.0 | 0.06 | 0.17 | 0.17 | 94 | 1009.0 |
| 20260506150531 | 59 | 165 | 6.0 | 21.0 | 0.06 | 0.17 | 0.17 | 94 | 1009.2 |
| 20260506150044 | 59 | 166 | 8.0 | 19.0 | 0.06 | 0.17 | 0.17 | 94 | 1009.4 |
| 20260506145535 | 59 | 161 | 7.0 | 19.0 | 0.05 | 0.16 | 0.16 | 93 | 1009.6 |
| 20260506145032 | 59 | 155 | 10.0 | 18.0 | 0.06 | 0.16 | 0.16 | 93 | 1009.8 |
| 20260506144558 | 59 | 200 | 5.0 | 18.0 | 0.05 | 0.15 | 0.15 | 93 | 1009.8 |
| 20260506144032 | 59 | 172 | 6.0 | 18.0 | 0.04 | 0.13 | 0.13 | 93 | 1009.9 |
| 20260506143532 | 59 | 194 | 5.0 | 16.0 | 0.04 | 0.13 | 0.13 | 93 | 1009.7 |
| 20260506143041 | 59 | 153 | 5.0 | 14.0 | 0.05 | 0.13 | 0.13 | 93 | 1009.6 |
| 20260506142531 | 59 | 154 | 5.0 | 15.0 | 0.04 | 0.12 | 0.12 | 93 | 1009.6 |
| 20260506142033 | 59 | 178 | 9.0 | 21.0 | 0.05 | 0.12 | 0.12 | 93 | 1009.4 |
| 20260506141540 | 59 | 111 | 9.0 | 21.0 | 0.04 | 0.11 | 0.11 | 93 | 1009.3 |
| 20260506141034 | 59 | 142 | 6.0 | 16.0 | 0.05 | 0.11 | 0.11 | 93 | 1009.6 |
| 20260506140534 | 59 | 192 | 7.0 | 16.0 | 0.05 | 0.11 | 0.11 | 93 | 1009.5 |
| 20260506140040 | 59 | 169 | 7.0 | 16.0 | 0.05 | 0.11 | 0.11 | 93 | 1009.6 |
| 20260506135531 | 59 | 185 | 9.0 | 17.0 | 0.06 | 0.11 | 0.11 | 93 | 1009.4 |
| 20260506135031 | 59 | 165 | 9.0 | 17.0 | 0.05 | 0.10 | 0.10 | 92 | 1009.6 |
| 20260506134545 | 59 | 142 | 7.0 | 17.0 | 0.06 | 0.10 | 0.10 | 92 | 1009.4 |
| 20260506134035 | 59 | 171 | 9.0 | 17.0 | 0.05 | 0.09 | 0.09 | 92 | 1009.8 |
| 20260506133531 | 59 | 165 | 8.0 | 15.0 | 0.05 | 0.08 | 0.08 | 92 | 1009.8 |
| 20260506133045 | 59 | 182 | 7.0 | 13.0 | 0.06 | 0.08 | 0.08 | 92 | 1010.0 |
| 20260506132531 | 59 | 127 | 5.0 | 13.0 | 0.06 | 0.07 | 0.07 | 92 | 1010.1 |
| 20260506132035 | 59 | 160 | 6.0 | 13.0 | 0.06 | 0.07 | 0.07 | 91 | 1009.9 |
| 20260506131541 | 59 | 134 | 5.0 | 14.0 | 0.06 | 0.07 | 0.07 | 91 | 1009.8 |
| 20260506131031 | 59 | 179 | 4.0 | 13.0 | 0.06 | 0.06 | 0.06 | 91 | 1009.8 |
| 20260506130533 | 59 | 161 | 3.0 | 12.0 | 0.06 | 0.06 | 0.06 | 91 | 1009.9 |
| 20260506130045 | 59 | 122 | 6.0 | 12.0 | 0.06 | 0.06 | 0.06 | 90 | 1010.0 |
| 20260506125531 | 60 | 175 | 6.0 | 13.0 | 0.05 | 0.05 | 0.05 | 90 | 1009.6 |
| 20260506125031 | 60 | 191 | 5.0 | 13.0 | 0.05 | 0.05 | 0.05 | 89 | 1009.6 |
| 20260506124543 | 60 | 198 | 5.0 | 11.0 | 0.04 | 0.04 | 0.04 | 88 | 1009.5 |
| 20260506124031 | 60 | 167 | 6.0 | 14.0 | 0.03 | 0.03 | 0.03 | 88 | 1009.7 |
| 20260506123531 | 60 | 152 | 5.0 | 14.0 | 0.03 | 0.03 | 0.03 | 87 | 1009.8 |
| 20260506123038 | 60 | 230 | 6.0 | 12.0 | 0.02 | 0.02 | 0.02 | 85 | 1009.8 |
| 20260506122531 | 61 | 193 | 5.0 | 12.0 | 0.01 | 0.01 | 0.01 | 85 | 1009.8 |
| 20260506122030 | 61 | 182 | 5.0 | 13.0 | 0.01 | 0.01 | 0.01 | 84 | 1010.0 |
| 20260506121549 | 61 | 194 | 5.0 | 14.0 | 0.01 | 0.01 | 0.01 | 83 | 1010.0 |
| 20260506121031 | 61 | 206 | 6.0 | 14.0 | 0.00 | 0.00 | 0.00 | 82 | 1010.0 |
| 20260506120532 | 62 | 206 | 5.0 | 14.0 | 0.00 | 0.00 | 0.00 | 81 | 1010.2 |
| 20260506120045 | 62 | 188 | 7.0 | 15.0 | 0.00 | 0.00 | 0.00 | 80 | 1010.2 |
| 20260506115534 | 62 | 177 | 7.0 | 15.0 | 0.00 | 0.00 | 0.00 | 79 | 1010.1 |
| 20260506115031 | 62 | 187 | 7.0 | 15.0 | 0.00 | 0.00 | 0.00 | 79 | 1010.2 |
| 20260506114541 | 63 | 202 | 7.0 | 15.0 | 0.00 | 0.00 | 0.00 | 78 | 1010.1 |
| 20260506114032 | 63 | 192 | 6.0 | 15.0 | 0.00 | 0.00 | 0.00 | 78 | 1010.1 |
| 20260506113531 | 63 | 203 | 5.0 | 10.0 | 0.00 | 0.00 | 0.00 | 78 | 1010.0 |
| 20260506113042 | 63 | 170 | 6.0 | 10.0 | 0.00 | 0.00 | 0.00 | 78 | 1009.9 |
| 20260506112534 | 63 | 217 | 4.0 | 13.0 | 0.00 | 0.00 | 0.00 | 77 | 1009.7 |
| 20260506112031 | 63 | 197 | 7.0 | 13.0 | 0.00 | 0.00 | 0.00 | 77 | 1009.5 |
| 20260506111540 | 63 | 200 | 6.0 | 16.0 | 0.00 | 0.00 | 0.00 | 76 | 1009.6 |
| 20260506111031 | 63 | 144 | 7.0 | 16.0 | 0.00 | 0.00 | 0.00 | 76 | 1009.6 |
| 20260506110533 | 63 | 209 | 7.0 | 16.0 | 0.00 | 0.00 | 0.00 | 75 | 1009.6 |
| 20260506110038 | 63 | 186 | 6.0 | 15.0 | 0.00 | 0.00 | 0.00 | 75 | 1009.6 |
| 20260506105531 | 64 | 161 | 6.0 | 16.0 | 0.00 | 0.00 | 0.00 | 73 | 1009.5 |
| 20260506105029 | 64 | 112 | 7.0 | 16.0 | 0.00 | 0.00 | 0.00 | 73 | 1009.4 |
| 20260506104545 | 64 | 156 | 6.0 | 16.0 | 0.00 | 0.00 | 0.00 | 73 | 1009.3 |
| 20260506104031 | 64 | 192 | 6.0 | 16.0 | 0.00 | 0.00 | 0.00 | 72 | 1009.3 |
| 20260506103535 | 64 | 177 | 6.0 | 15.0 | 0.00 | 0.00 | 0.00 | 71 | 1009.1 |
| 20260506103048 | 64 | 159 | 6.0 | 14.0 | 0.00 | 0.00 | 0.00 | 71 | 1009.1 |
| 20260506102532 | 64 | 159 | 5.0 | 15.0 | 0.00 | 0.00 | 0.00 | 71 | 1009.1 |
| 20260506102031 | 64 | 205 | 7.0 | 17.0 | 0.00 | 0.00 | 0.00 | 70 | 1009.1 |
| 20260506101544 | 64 | 181 | 7.0 | 17.0 | 0.00 | 0.00 | 0.00 | 70 | 1009.0 |